Year,Month,Day,Hour,Minute,Value (Times are PST for windgust in km/hr)
2008,10,05,00,00,9.60
2008,10,05,00,01,9.60
2008,10,05,00,02,8.10
2008,10,05,00,03,4.80
2008,10,05,00,04,4.80
2008,10,05,00,05,6.40
2008,10,05,00,06,4.80
2008,10,05,00,07,8.10
2008,10,05,00,08,20.90
2008,10,05,00,09,9.60
2008,10,05,00,10,14.50
2008,10,05,00,11,16.10
2008,10,05,00,12,14.50
2008,10,05,00,13,6.40
2008,10,05,00,14,8.10
2008,10,05,00,15,11.30
2008,10,05,00,16,12.90
2008,10,05,00,17,14.50
2008,10,05,00,18,4.80
2008,10,05,00,19,11.30
2008,10,05,00,20,8.10
2008,10,05,00,21,9.60
2008,10,05,00,22,9.60
2008,10,05,00,23,6.40
2008,10,05,00,24,6.40
2008,10,05,00,25,9.60
2008,10,05,00,26,9.60
2008,10,05,00,27,9.60
2008,10,05,00,28,6.40
2008,10,05,00,29,6.40
2008,10,05,00,30,11.30
2008,10,05,00,31,6.40
2008,10,05,00,32,6.40
2008,10,05,00,33,16.10
2008,10,05,00,34,9.60
2008,10,05,00,35,9.60
2008,10,05,00,36,11.30
2008,10,05,00,37,11.30
2008,10,05,00,38,8.10
2008,10,05,00,39,9.60
2008,10,05,00,40,9.60
2008,10,05,00,41,6.40
2008,10,05,00,42,8.10
2008,10,05,00,43,14.50
2008,10,05,00,44,6.40
2008,10,05,00,45,9.60
2008,10,05,00,46,9.60
2008,10,05,00,47,9.60
2008,10,05,00,48,9.60
2008,10,05,00,49,8.10
2008,10,05,00,50,14.50
2008,10,05,00,51,9.60
2008,10,05,00,52,11.30
2008,10,05,00,53,11.30
2008,10,05,00,54,11.30
2008,10,05,00,55,6.40
2008,10,05,00,56,16.10
2008,10,05,00,57,9.60
2008,10,05,00,58,11.30
2008,10,05,00,59,4.80
2008,10,05,01,00,9.60
2008,10,05,01,01,9.60
2008,10,05,01,02,17.70
2008,10,05,01,03,19.30
2008,10,05,01,04,8.10
2008,10,05,01,05,11.30
2008,10,05,01,06,11.30
2008,10,05,01,07,9.60
2008,10,05,01,08,9.60
2008,10,05,01,09,17.70
2008,10,05,01,10,16.10
2008,10,05,01,11,11.30
2008,10,05,01,12,14.50
2008,10,05,01,13,16.10
2008,10,05,01,14,9.60
2008,10,05,01,15,11.30
2008,10,05,01,16,11.30
2008,10,05,01,17,14.50
2008,10,05,01,18,8.10
2008,10,05,01,19,8.10
2008,10,05,01,20,9.60
2008,10,05,01,21,8.10
2008,10,05,01,22,8.10
2008,10,05,01,23,8.10
2008,10,05,01,24,9.60
2008,10,05,01,25,9.60
2008,10,05,01,26,9.60
2008,10,05,01,27,8.10
2008,10,05,01,28,6.40
2008,10,05,01,29,8.10
2008,10,05,01,30,9.60
2008,10,05,01,31,8.10
2008,10,05,01,32,6.40
2008,10,05,01,33,8.10
2008,10,05,01,34,8.10
2008,10,05,01,35,14.50
2008,10,05,01,36,12.90
2008,10,05,01,37,16.10
2008,10,05,01,38,8.10
2008,10,05,01,39,8.10
2008,10,05,01,40,9.60
2008,10,05,01,41,19.30
2008,10,05,01,42,11.30
2008,10,05,01,43,16.10
2008,10,05,01,44,16.10
2008,10,05,01,45,12.90
2008,10,05,01,46,8.10
2008,10,05,01,47,9.60
2008,10,05,01,48,11.30
2008,10,05,01,49,11.30
2008,10,05,01,50,4.80
2008,10,05,01,51,4.80
2008,10,05,01,52,9.60
2008,10,05,01,53,8.10
2008,10,05,01,54,6.40
2008,10,05,01,55,8.10
2008,10,05,01,56,17.70
2008,10,05,01,57,14.50
2008,10,05,01,58,11.30
2008,10,05,01,59,9.60
2008,10,05,02,00,6.40
2008,10,05,02,01,8.10
2008,10,05,02,02,9.60
2008,10,05,02,03,6.40
2008,10,05,02,04,8.10
2008,10,05,02,05,14.50
2008,10,05,02,06,4.80
2008,10,05,02,07,9.60
2008,10,05,02,08,12.90
2008,10,05,02,09,11.30
2008,10,05,02,10,14.50
2008,10,05,02,11,16.10
2008,10,05,02,12,8.10
2008,10,05,02,13,9.60
2008,10,05,02,14,9.60
2008,10,05,02,15,9.60
2008,10,05,02,16,9.60
2008,10,05,02,17,8.10
2008,10,05,02,18,8.10
2008,10,05,02,19,11.30
2008,10,05,02,20,9.60
2008,10,05,02,21,16.10
2008,10,05,02,22,14.50
2008,10,05,02,23,14.50
2008,10,05,02,24,14.50
2008,10,05,02,25,16.10
2008,10,05,02,26,16.10
2008,10,05,02,27,9.60
2008,10,05,02,28,6.40
2008,10,05,02,29,6.40
2008,10,05,02,30,8.10
2008,10,05,02,31,14.50
2008,10,05,02,32,9.60
2008,10,05,02,33,9.60
2008,10,05,02,34,11.30
2008,10,05,02,35,8.10
2008,10,05,02,36,11.30
2008,10,05,02,37,9.60
2008,10,05,02,38,9.60
2008,10,05,02,39,11.30
2008,10,05,02,40,9.60
2008,10,05,02,41,14.50
2008,10,05,02,42,8.10
2008,10,05,02,43,14.50
2008,10,05,02,44,14.50
2008,10,05,02,45,9.60
2008,10,05,02,46,11.30
2008,10,05,02,47,11.30
2008,10,05,02,48,8.10
2008,10,05,02,49,8.10
2008,10,05,02,50,11.30
2008,10,05,02,51,14.50
2008,10,05,02,52,11.30
2008,10,05,02,53,9.60
2008,10,05,02,54,9.60
2008,10,05,02,55,11.30
2008,10,05,02,56,11.30
2008,10,05,02,57,16.10
2008,10,05,02,58,11.30
2008,10,05,02,59,9.60
2008,10,05,03,00,11.30
2008,10,05,03,01,11.30
2008,10,05,03,02,9.60
2008,10,05,03,03,8.10
2008,10,05,03,04,8.10
2008,10,05,03,05,8.10
2008,10,05,03,06,8.10
2008,10,05,03,07,8.10
2008,10,05,03,08,8.10
2008,10,05,03,09,6.40
2008,10,05,03,10,8.10
2008,10,05,03,11,6.40
2008,10,05,03,12,6.40
2008,10,05,03,13,6.40
2008,10,05,03,14,4.80
2008,10,05,03,15,8.10
2008,10,05,03,16,4.80
2008,10,05,03,17,8.10
2008,10,05,03,18,4.80
2008,10,05,03,19,8.10
2008,10,05,03,20,6.40
2008,10,05,03,21,4.80
2008,10,05,03,22,8.10
2008,10,05,03,23,6.40
2008,10,05,03,24,4.80
2008,10,05,03,25,3.20
2008,10,05,03,26,1.60
2008,10,05,03,27,1.60
2008,10,05,03,28,1.60
2008,10,05,03,29,3.20
2008,10,05,03,30,4.80
2008,10,05,03,31,1.60
2008,10,05,03,32,6.40
2008,10,05,03,33,4.80
2008,10,05,03,34,1.60
2008,10,05,03,35,4.80
2008,10,05,03,36,3.20
2008,10,05,03,37,1.60
2008,10,05,03,38,3.20
2008,10,05,03,39,1.60
2008,10,05,03,40,3.20
2008,10,05,03,41,0.00
2008,10,05,03,42,1.60
2008,10,05,03,43,0.00
2008,10,05,03,44,0.00
2008,10,05,03,45,1.60
2008,10,05,03,46,1.60
2008,10,05,03,47,0.00
2008,10,05,03,48,0.00
2008,10,05,03,49,1.60
2008,10,05,03,50,1.60
2008,10,05,03,51,0.00
2008,10,05,03,52,0.00
2008,10,05,03,53,0.00
2008,10,05,03,54,4.80
2008,10,05,03,55,1.60
2008,10,05,03,56,1.60
2008,10,05,03,57,3.20
2008,10,05,03,58,3.20
2008,10,05,03,59,0.00
2008,10,05,04,00,1.60
2008,10,05,04,01,0.00
2008,10,05,04,02,0.00
2008,10,05,04,03,0.00
2008,10,05,04,04,0.00
2008,10,05,04,05,1.60
2008,10,05,04,06,0.00
2008,10,05,04,07,3.20
2008,10,05,04,08,6.40
2008,10,05,04,09,14.50
2008,10,05,04,10,6.40
2008,10,05,04,11,4.80
2008,10,05,04,12,6.40
2008,10,05,04,13,4.80
2008,10,05,04,14,4.80
2008,10,05,04,15,4.80
2008,10,05,04,16,3.20
2008,10,05,04,17,9.60
2008,10,05,04,18,6.40
2008,10,05,04,19,8.10
2008,10,05,04,20,8.10
2008,10,05,04,21,6.40
2008,10,05,04,22,8.10
2008,10,05,04,23,8.10
2008,10,05,04,24,6.40
2008,10,05,04,25,6.40
2008,10,05,04,26,8.10
2008,10,05,04,27,9.60
2008,10,05,04,28,9.60
2008,10,05,04,29,9.60
2008,10,05,04,30,8.10
2008,10,05,04,31,8.10
2008,10,05,04,32,16.10
2008,10,05,04,33,11.30
2008,10,05,04,34,9.60
2008,10,05,04,35,14.50
2008,10,05,04,36,8.10
2008,10,05,04,37,11.30
2008,10,05,04,38,9.60
2008,10,05,04,39,9.60
2008,10,05,04,40,8.10
2008,10,05,04,41,14.50
2008,10,05,04,42,9.60
2008,10,05,04,43,8.10
2008,10,05,04,44,8.10
2008,10,05,04,45,6.40
2008,10,05,04,46,9.60
2008,10,05,04,47,8.10
2008,10,05,04,48,8.10
2008,10,05,04,49,9.60
2008,10,05,04,50,6.40
2008,10,05,04,51,8.10
2008,10,05,04,52,11.30
2008,10,05,04,53,6.40
2008,10,05,04,54,4.80
2008,10,05,04,55,4.80
2008,10,05,04,56,3.20
2008,10,05,04,57,4.80
2008,10,05,04,58,3.20
2008,10,05,04,59,1.60
2008,10,05,05,00,1.60
2008,10,05,05,01,1.60
2008,10,05,05,02,6.40
2008,10,05,05,03,3.20
2008,10,05,05,04,0.00
2008,10,05,05,05,1.60
2008,10,05,05,06,4.80
2008,10,05,05,07,1.60
2008,10,05,05,08,0.00
2008,10,05,05,09,0.00
2008,10,05,05,10,0.00
2008,10,05,05,11,0.00
2008,10,05,05,12,0.00
2008,10,05,05,13,0.00
2008,10,05,05,14,0.00
2008,10,05,05,15,0.00
2008,10,05,05,16,0.00
2008,10,05,05,17,0.00
2008,10,05,05,18,0.00
2008,10,05,05,19,0.00
2008,10,05,05,20,0.00
2008,10,05,05,21,0.00
2008,10,05,05,22,0.00
2008,10,05,05,23,0.00
2008,10,05,05,24,0.00
2008,10,05,05,25,0.00
2008,10,05,05,26,0.00
2008,10,05,05,27,0.00
2008,10,05,05,28,0.00
2008,10,05,05,29,0.00
2008,10,05,05,30,0.00
2008,10,05,05,31,0.00
2008,10,05,05,32,0.00
2008,10,05,05,33,1.60
2008,10,05,05,34,0.00
2008,10,05,05,35,0.00
2008,10,05,05,36,1.60
2008,10,05,05,37,1.60
2008,10,05,05,38,0.00
2008,10,05,05,39,0.00
2008,10,05,05,40,1.60
2008,10,05,05,41,0.00
2008,10,05,05,42,0.00
2008,10,05,05,43,1.60
2008,10,05,05,44,0.00
2008,10,05,05,45,1.60
2008,10,05,05,46,1.60
2008,10,05,05,47,1.60
2008,10,05,05,48,0.00
2008,10,05,05,49,1.60
2008,10,05,05,50,0.00
2008,10,05,05,51,1.60
2008,10,05,05,52,0.00
2008,10,05,05,53,0.00
2008,10,05,05,54,1.60
2008,10,05,05,55,0.00
2008,10,05,05,56,0.00
2008,10,05,05,57,1.60
2008,10,05,05,58,0.00
2008,10,05,05,59,0.00
2008,10,05,06,00,0.00
2008,10,05,06,01,0.00
2008,10,05,06,02,1.60
2008,10,05,06,03,1.60
2008,10,05,06,04,0.00
2008,10,05,06,05,0.00
2008,10,05,06,06,0.00
2008,10,05,06,07,0.00
2008,10,05,06,08,0.00
2008,10,05,06,09,1.60
2008,10,05,06,10,1.60
2008,10,05,06,11,0.00
2008,10,05,06,12,0.00
2008,10,05,06,13,0.00
2008,10,05,06,14,0.00
2008,10,05,06,15,0.00
2008,10,05,06,16,0.00
2008,10,05,06,17,0.00
2008,10,05,06,18,0.00
2008,10,05,06,19,1.60
2008,10,05,06,20,0.00
2008,10,05,06,21,0.00
2008,10,05,06,22,0.00
2008,10,05,06,23,0.00
2008,10,05,06,24,0.00
2008,10,05,06,25,0.00
2008,10,05,06,26,1.60
2008,10,05,06,27,3.20
2008,10,05,06,28,1.60
2008,10,05,06,29,3.20
2008,10,05,06,30,0.00
2008,10,05,06,31,1.60
2008,10,05,06,32,1.60
2008,10,05,06,33,1.60
2008,10,05,06,34,3.20
2008,10,05,06,35,1.60
2008,10,05,06,36,0.00
2008,10,05,06,37,1.60
2008,10,05,06,38,0.00
2008,10,05,06,39,0.00
2008,10,05,06,40,0.00
2008,10,05,06,41,1.60
2008,10,05,06,42,1.60
2008,10,05,06,43,3.20
2008,10,05,06,44,0.00
2008,10,05,06,45,1.60
2008,10,05,06,46,0.00
2008,10,05,06,47,1.60
2008,10,05,06,48,0.00
2008,10,05,06,49,1.60
2008,10,05,06,50,1.60
2008,10,05,06,51,0.00
2008,10,05,06,52,0.00
2008,10,05,06,53,1.60
2008,10,05,06,54,1.60
2008,10,05,06,55,1.60
2008,10,05,06,56,1.60
2008,10,05,06,57,0.00
2008,10,05,06,58,0.00
2008,10,05,06,59,0.00
2008,10,05,07,00,0.00
2008,10,05,07,01,0.00
2008,10,05,07,02,1.60
2008,10,05,07,03,1.60
2008,10,05,07,04,1.60
2008,10,05,07,05,14.50
2008,10,05,07,06,14.50
2008,10,05,07,07,11.30
2008,10,05,07,08,9.60
2008,10,05,07,09,4.80
2008,10,05,07,10,17.70
2008,10,05,07,11,8.10
2008,10,05,07,12,14.50
2008,10,05,07,13,8.10
2008,10,05,07,14,8.10
2008,10,05,07,15,4.80
2008,10,05,07,16,9.60
2008,10,05,07,17,6.40
2008,10,05,07,18,3.20
2008,10,05,07,19,6.40
2008,10,05,07,20,3.20
2008,10,05,07,21,4.80
2008,10,05,07,22,1.60
2008,10,05,07,23,1.60
2008,10,05,07,24,3.20
2008,10,05,07,25,3.20
2008,10,05,07,26,3.20
2008,10,05,07,27,3.20
2008,10,05,07,28,3.20
2008,10,05,07,29,3.20
2008,10,05,07,30,3.20
2008,10,05,07,31,6.40
2008,10,05,07,32,8.10
2008,10,05,07,33,8.10
2008,10,05,07,34,3.20
2008,10,05,07,35,1.60
2008,10,05,07,36,3.20
2008,10,05,07,37,4.80
2008,10,05,07,38,4.80
2008,10,05,07,39,4.80
2008,10,05,07,40,0.00
2008,10,05,07,41,0.00
2008,10,05,07,42,0.00
2008,10,05,07,43,1.60
2008,10,05,07,44,0.00
2008,10,05,07,45,3.20
2008,10,05,07,46,1.60
2008,10,05,07,47,1.60
2008,10,05,07,48,1.60
2008,10,05,07,49,1.60
2008,10,05,07,50,4.80
2008,10,05,07,51,0.00
2008,10,05,07,52,0.00
2008,10,05,07,53,1.60
2008,10,05,07,54,3.20
2008,10,05,07,55,1.60
2008,10,05,07,56,0.00
2008,10,05,07,57,1.60
2008,10,05,07,58,0.00
2008,10,05,07,59,0.00
2008,10,05,08,00,1.60
2008,10,05,08,01,0.00
2008,10,05,08,02,1.60
2008,10,05,08,03,0.00
2008,10,05,08,04,0.00
2008,10,05,08,05,0.00
2008,10,05,08,06,0.00
2008,10,05,08,07,0.00
2008,10,05,08,08,0.00
2008,10,05,08,09,0.00
2008,10,05,08,10,0.00
2008,10,05,08,11,0.00
2008,10,05,08,12,0.00
2008,10,05,08,13,0.00
2008,10,05,08,14,0.00
2008,10,05,08,15,0.00
2008,10,05,08,16,1.60
2008,10,05,08,17,0.00
2008,10,05,08,18,0.00
2008,10,05,08,19,0.00
2008,10,05,08,20,0.00
2008,10,05,08,21,0.00
2008,10,05,08,22,0.00
2008,10,05,08,23,0.00
2008,10,05,08,24,0.00
2008,10,05,08,25,0.00
2008,10,05,08,26,0.00
2008,10,05,08,27,0.00
2008,10,05,08,28,0.00
2008,10,05,08,29,1.60
2008,10,05,08,30,0.00
2008,10,05,08,31,0.00
2008,10,05,08,32,0.00
2008,10,05,08,33,0.00
2008,10,05,08,34,1.60
2008,10,05,08,35,4.80
2008,10,05,08,36,3.20
2008,10,05,08,37,0.00
2008,10,05,08,38,0.00
2008,10,05,08,39,1.60
2008,10,05,08,40,1.60
2008,10,05,08,41,0.00
2008,10,05,08,42,0.00
2008,10,05,08,43,1.60
2008,10,05,08,44,1.60
2008,10,05,08,45,0.00
2008,10,05,08,46,0.00
2008,10,05,08,47,0.00
2008,10,05,08,48,1.60
2008,10,05,08,49,0.00
2008,10,05,08,50,0.00
2008,10,05,08,51,0.00
2008,10,05,08,52,0.00
2008,10,05,08,53,0.00
2008,10,05,08,54,0.00
2008,10,05,08,55,0.00
2008,10,05,08,56,0.00
2008,10,05,08,57,0.00
2008,10,05,08,58,0.00
2008,10,05,08,59,0.00
2008,10,05,09,00,0.00
2008,10,05,09,01,0.00
2008,10,05,09,02,0.00
2008,10,05,09,03,0.00
2008,10,05,09,04,0.00
2008,10,05,09,05,0.00
2008,10,05,09,06,0.00
2008,10,05,09,07,0.00
2008,10,05,09,08,0.00
2008,10,05,09,09,0.00
2008,10,05,09,10,0.00
2008,10,05,09,11,0.00
2008,10,05,09,12,0.00
2008,10,05,09,13,0.00
2008,10,05,09,14,0.00
2008,10,05,09,15,0.00
2008,10,05,09,16,0.00
2008,10,05,09,17,0.00
2008,10,05,09,18,0.00
2008,10,05,09,19,0.00
2008,10,05,09,20,0.00
2008,10,05,09,21,0.00
2008,10,05,09,22,0.00
2008,10,05,09,23,0.00
2008,10,05,09,24,0.00
2008,10,05,09,25,0.00
2008,10,05,09,26,0.00
2008,10,05,09,27,0.00
2008,10,05,09,28,0.00
2008,10,05,09,29,0.00
2008,10,05,09,30,0.00
2008,10,05,09,31,0.00
2008,10,05,09,32,0.00
2008,10,05,09,33,1.60
2008,10,05,09,34,0.00
2008,10,05,09,35,0.00
2008,10,05,09,36,0.00
2008,10,05,09,37,0.00
2008,10,05,09,38,0.00
2008,10,05,09,39,0.00
2008,10,05,09,40,1.60
2008,10,05,09,41,0.00
2008,10,05,09,42,0.00
2008,10,05,09,43,0.00
2008,10,05,09,44,0.00
2008,10,05,09,45,0.00
2008,10,05,09,46,1.60
2008,10,05,09,47,1.60
2008,10,05,09,48,0.00
2008,10,05,09,49,0.00
2008,10,05,09,50,1.60
2008,10,05,09,51,1.60
2008,10,05,09,52,0.00
2008,10,05,09,53,1.60
2008,10,05,09,54,1.60
2008,10,05,09,55,1.60
2008,10,05,09,56,0.00
2008,10,05,09,57,0.00
2008,10,05,09,58,1.60
2008,10,05,09,59,0.00
2008,10,05,10,00,0.00
2008,10,05,10,01,1.60
2008,10,05,10,02,3.20
2008,10,05,10,03,4.80
2008,10,05,10,04,0.00
2008,10,05,10,05,1.60
2008,10,05,10,06,0.00
2008,10,05,10,07,0.00
2008,10,05,10,08,0.00
2008,10,05,10,09,0.00
2008,10,05,10,10,1.60
2008,10,05,10,11,0.00
2008,10,05,10,12,0.00
2008,10,05,10,13,1.60
2008,10,05,10,14,3.20
2008,10,05,10,15,4.80
2008,10,05,10,16,1.60
2008,10,05,10,17,3.20
2008,10,05,10,18,1.60
2008,10,05,10,19,0.00
2008,10,05,10,20,4.80
2008,10,05,10,21,4.80
2008,10,05,10,22,4.80
2008,10,05,10,23,4.80
2008,10,05,10,24,3.20
2008,10,05,10,25,0.00
2008,10,05,10,26,4.80
2008,10,05,10,27,4.80
2008,10,05,10,28,0.00
2008,10,05,10,29,1.60
2008,10,05,10,30,0.00
2008,10,05,10,31,4.80
2008,10,05,10,32,4.80
2008,10,05,10,33,4.80
2008,10,05,10,34,1.60
2008,10,05,10,35,3.20
2008,10,05,10,36,1.60
2008,10,05,10,37,1.60
2008,10,05,10,38,1.60
2008,10,05,10,39,1.60
2008,10,05,10,40,1.60
2008,10,05,10,41,4.80
2008,10,05,10,42,1.60
2008,10,05,10,43,0.00
2008,10,05,10,44,1.60
2008,10,05,10,45,1.60
2008,10,05,10,46,1.60
2008,10,05,10,47,0.00
2008,10,05,10,48,1.60
2008,10,05,10,49,4.80
2008,10,05,10,50,1.60
2008,10,05,10,51,1.60
2008,10,05,10,52,4.80
2008,10,05,10,53,1.60
2008,10,05,10,54,8.10
2008,10,05,10,55,4.80
2008,10,05,10,56,9.60
2008,10,05,10,57,11.30
2008,10,05,10,58,3.20
2008,10,05,10,59,8.10
2008,10,05,11,00,4.80
2008,10,05,11,01,4.80
2008,10,05,11,02,8.10
2008,10,05,11,03,6.40
2008,10,05,11,04,1.60
2008,10,05,11,05,3.20
2008,10,05,11,06,4.80
2008,10,05,11,07,3.20
2008,10,05,11,08,4.80
2008,10,05,11,09,3.20
2008,10,05,11,10,6.40
2008,10,05,11,11,6.40
2008,10,05,11,12,9.60
2008,10,05,11,13,4.80
2008,10,05,11,14,4.80
2008,10,05,11,15,3.20
2008,10,05,11,16,1.60
2008,10,05,11,17,3.20
2008,10,05,11,18,3.20
2008,10,05,11,19,3.20
2008,10,05,11,20,3.20
2008,10,05,11,21,4.80
2008,10,05,11,22,6.40
2008,10,05,11,23,6.40
2008,10,05,11,24,6.40
2008,10,05,11,25,6.40
2008,10,05,11,26,6.40
2008,10,05,11,27,4.80
2008,10,05,11,28,1.60
2008,10,05,11,29,1.60
2008,10,05,11,30,3.20
2008,10,05,11,31,1.60
2008,10,05,11,32,4.80
2008,10,05,11,33,6.40
2008,10,05,11,34,4.80
2008,10,05,11,35,6.40
2008,10,05,11,36,6.40
2008,10,05,11,37,4.80
2008,10,05,11,38,1.60
2008,10,05,11,39,1.60
2008,10,05,11,40,3.20
2008,10,05,11,41,4.80
2008,10,05,11,42,4.80
2008,10,05,11,43,4.80
2008,10,05,11,44,6.40
2008,10,05,11,45,3.20
2008,10,05,11,46,4.80
2008,10,05,11,47,3.20
2008,10,05,11,48,1.60
2008,10,05,11,49,6.40
2008,10,05,11,50,1.60
2008,10,05,11,51,4.80
2008,10,05,11,52,8.10
2008,10,05,11,53,3.20
2008,10,05,11,54,9.60
2008,10,05,11,55,1.60
2008,10,05,11,56,9.60
2008,10,05,11,57,6.40
2008,10,05,11,58,4.80
2008,10,05,11,59,9.60
2008,10,05,12,00,6.40
2008,10,05,12,01,6.40
2008,10,05,12,02,3.20
2008,10,05,12,03,4.80
2008,10,05,12,04,6.40
2008,10,05,12,05,4.80
2008,10,05,12,06,4.80
2008,10,05,12,07,0.00
2008,10,05,12,08,1.60
2008,10,05,12,09,4.80
2008,10,05,12,10,8.10
2008,10,05,12,11,6.40
2008,10,05,12,12,9.60
2008,10,05,12,13,1.60
2008,10,05,12,14,8.10
2008,10,05,12,15,6.40
2008,10,05,12,16,9.60
2008,10,05,12,17,1.60
2008,10,05,12,18,1.60
2008,10,05,12,19,4.80
2008,10,05,12,20,3.20
2008,10,05,12,21,1.60
2008,10,05,12,22,0.00
2008,10,05,12,23,9.60
2008,10,05,12,24,6.40
2008,10,05,12,25,3.20
2008,10,05,12,26,0.00
2008,10,05,12,27,0.00
2008,10,05,12,28,1.60
2008,10,05,12,29,3.20
2008,10,05,12,30,1.60
2008,10,05,12,31,1.60
2008,10,05,12,32,3.20
2008,10,05,12,33,3.20
2008,10,05,12,34,4.80
2008,10,05,12,35,1.60
2008,10,05,12,36,4.80
2008,10,05,12,37,3.20
2008,10,05,12,38,1.60
2008,10,05,12,39,6.40
2008,10,05,12,40,3.20
2008,10,05,12,41,4.80
2008,10,05,12,42,3.20
2008,10,05,12,43,4.80
2008,10,05,12,44,4.80
2008,10,05,12,45,6.40
2008,10,05,12,46,4.80
2008,10,05,12,47,3.20
2008,10,05,12,48,4.80
2008,10,05,12,49,3.20
2008,10,05,12,50,4.80
2008,10,05,12,51,3.20
2008,10,05,12,52,1.60
2008,10,05,12,53,4.80
2008,10,05,12,54,6.40
2008,10,05,12,55,1.60
2008,10,05,12,56,1.60
2008,10,05,12,57,4.80
2008,10,05,12,58,3.20
2008,10,05,12,59,1.60
2008,10,05,13,00,4.80
2008,10,05,13,01,1.60
2008,10,05,13,02,6.40
2008,10,05,13,03,3.20
2008,10,05,13,04,6.40
2008,10,05,13,05,4.80
2008,10,05,13,06,3.20
2008,10,05,13,07,3.20
2008,10,05,13,08,3.20
2008,10,05,13,09,3.20
2008,10,05,13,10,11.30
2008,10,05,13,11,3.20
2008,10,05,13,12,6.40
2008,10,05,13,13,1.60
2008,10,05,13,14,4.80
2008,10,05,13,15,1.60
2008,10,05,13,16,1.60
2008,10,05,13,17,1.60
2008,10,05,13,18,1.60
2008,10,05,13,19,4.80
2008,10,05,13,20,1.60
2008,10,05,13,21,1.60
2008,10,05,13,22,1.60
2008,10,05,13,23,0.00
2008,10,05,13,24,1.60
2008,10,05,13,25,8.10
2008,10,05,13,26,3.20
2008,10,05,13,27,1.60
2008,10,05,13,28,1.60
2008,10,05,13,29,1.60
2008,10,05,13,30,1.60
2008,10,05,13,31,4.80
2008,10,05,13,32,8.10
2008,10,05,13,33,4.80
2008,10,05,13,34,1.60
2008,10,05,13,35,3.20
2008,10,05,13,36,1.60
2008,10,05,13,37,6.40
2008,10,05,13,38,6.40
2008,10,05,13,39,3.20
2008,10,05,13,40,1.60
2008,10,05,13,41,1.60
2008,10,05,13,42,3.20
2008,10,05,13,43,4.80
2008,10,05,13,44,1.60
2008,10,05,13,45,3.20
2008,10,05,13,46,1.60
2008,10,05,13,47,3.20
2008,10,05,13,48,3.20
2008,10,05,13,49,3.20
2008,10,05,13,50,1.60
2008,10,05,13,51,3.20
2008,10,05,13,52,1.60
2008,10,05,13,53,1.60
2008,10,05,13,54,0.00
2008,10,05,13,55,1.60
2008,10,05,13,56,3.20
2008,10,05,13,57,3.20
2008,10,05,13,58,3.20
2008,10,05,13,59,4.80
2008,10,05,14,00,6.40
2008,10,05,14,01,6.40
2008,10,05,14,02,1.60
2008,10,05,14,03,6.40
2008,10,05,14,04,4.80
2008,10,05,14,05,4.80
2008,10,05,14,06,1.60
2008,10,05,14,07,3.20
2008,10,05,14,08,4.80
2008,10,05,14,09,3.20
2008,10,05,14,10,1.60
2008,10,05,14,11,4.80
2008,10,05,14,12,1.60
2008,10,05,14,13,11.30
2008,10,05,14,14,6.40
2008,10,05,14,15,4.80
2008,10,05,14,16,6.40
2008,10,05,14,17,4.80
2008,10,05,14,18,1.60
2008,10,05,14,19,3.20
2008,10,05,14,20,6.40
2008,10,05,14,21,4.80
2008,10,05,14,22,6.40
2008,10,05,14,23,6.40
2008,10,05,14,24,8.10
2008,10,05,14,25,6.40
2008,10,05,14,26,1.60
2008,10,05,14,27,3.20
2008,10,05,14,28,3.20
2008,10,05,14,29,6.40
2008,10,05,14,30,4.80
2008,10,05,14,31,3.20
2008,10,05,14,32,6.40
2008,10,05,14,33,6.40
2008,10,05,14,34,6.40
2008,10,05,14,35,3.20
2008,10,05,14,36,4.80
2008,10,05,14,37,4.80
2008,10,05,14,38,1.60
2008,10,05,14,39,4.80
2008,10,05,14,40,4.80
2008,10,05,14,41,6.40
2008,10,05,14,42,6.40
2008,10,05,14,43,8.10
2008,10,05,14,44,1.60
2008,10,05,14,45,4.80
2008,10,05,14,46,3.20
2008,10,05,14,47,1.60
2008,10,05,14,48,3.20
2008,10,05,14,49,1.60
2008,10,05,14,50,6.40
2008,10,05,14,51,3.20
2008,10,05,14,52,1.60
2008,10,05,14,53,1.60
2008,10,05,14,54,1.60
2008,10,05,14,55,6.40
2008,10,05,14,56,4.80
2008,10,05,14,57,6.40
2008,10,05,14,58,1.60
2008,10,05,14,59,1.60
2008,10,05,15,00,1.60
2008,10,05,15,01,3.20
2008,10,05,15,02,4.80
2008,10,05,15,03,1.60
2008,10,05,15,04,6.40
2008,10,05,15,05,4.80
2008,10,05,15,06,9.60
2008,10,05,15,07,6.40
2008,10,05,15,08,4.80
2008,10,05,15,09,6.40
2008,10,05,15,10,4.80
2008,10,05,15,11,3.20
2008,10,05,15,12,4.80
2008,10,05,15,13,3.20
2008,10,05,15,14,3.20
2008,10,05,15,15,9.60
2008,10,05,15,16,4.80
2008,10,05,15,17,3.20
2008,10,05,15,18,3.20
2008,10,05,15,19,1.60
2008,10,05,15,20,6.40
2008,10,05,15,21,4.80
2008,10,05,15,22,4.80
2008,10,05,15,23,4.80
2008,10,05,15,24,4.80
2008,10,05,15,25,0.00
2008,10,05,15,26,0.00
2008,10,05,15,27,6.40
2008,10,05,15,28,1.60
2008,10,05,15,29,1.60
2008,10,05,15,30,4.80
2008,10,05,15,31,4.80
2008,10,05,15,32,1.60
2008,10,05,15,33,4.80
2008,10,05,15,34,6.40
2008,10,05,15,35,4.80
2008,10,05,15,36,4.80
2008,10,05,15,37,1.60
2008,10,05,15,38,3.20
2008,10,05,15,39,1.60
2008,10,05,15,40,3.20
2008,10,05,15,41,1.60
2008,10,05,15,42,1.60
2008,10,05,15,43,1.60
2008,10,05,15,44,3.20
2008,10,05,15,45,1.60
2008,10,05,15,46,3.20
2008,10,05,15,47,1.60
2008,10,05,15,48,4.80
2008,10,05,15,49,4.80
2008,10,05,15,50,4.80
2008,10,05,15,51,1.60
2008,10,05,15,52,1.60
2008,10,05,15,53,4.80
2008,10,05,15,54,3.20
2008,10,05,15,55,8.10
2008,10,05,15,56,4.80
2008,10,05,15,57,6.40
2008,10,05,15,58,4.80
2008,10,05,15,59,1.60
2008,10,05,16,00,3.20
2008,10,05,16,01,1.60
2008,10,05,16,02,1.60
2008,10,05,16,03,4.80
2008,10,05,16,04,3.20
2008,10,05,16,05,0.00
2008,10,05,16,06,0.00
2008,10,05,16,07,1.60
2008,10,05,16,08,1.60
2008,10,05,16,09,1.60
2008,10,05,16,10,3.20
2008,10,05,16,11,3.20
2008,10,05,16,12,1.60
2008,10,05,16,13,1.60
2008,10,05,16,14,0.00
2008,10,05,16,15,1.60
2008,10,05,16,16,1.60
2008,10,05,16,17,0.00
2008,10,05,16,18,1.60
2008,10,05,16,19,1.60
2008,10,05,16,20,0.00
2008,10,05,16,21,0.00
2008,10,05,16,22,1.60
2008,10,05,16,23,3.20
2008,10,05,16,24,0.00
2008,10,05,16,25,1.60
2008,10,05,16,26,0.00
2008,10,05,16,27,1.60
2008,10,05,16,28,0.00
2008,10,05,16,29,1.60
2008,10,05,16,30,3.20
2008,10,05,16,31,3.20
2008,10,05,16,32,3.20
2008,10,05,16,33,1.60
2008,10,05,16,34,1.60
2008,10,05,16,35,1.60
2008,10,05,16,36,0.00
2008,10,05,16,37,1.60
2008,10,05,16,38,0.00
2008,10,05,16,39,1.60
2008,10,05,16,40,1.60
2008,10,05,16,41,1.60
2008,10,05,16,42,4.80
2008,10,05,16,43,3.20
2008,10,05,16,44,0.00
2008,10,05,16,45,0.00
2008,10,05,16,46,0.00
2008,10,05,16,47,1.60
2008,10,05,16,48,1.60
2008,10,05,16,49,1.60
2008,10,05,16,50,0.00
2008,10,05,16,51,0.00
2008,10,05,16,52,1.60
2008,10,05,16,53,1.60
2008,10,05,16,54,3.20
2008,10,05,16,55,1.60
2008,10,05,16,56,1.60
2008,10,05,16,57,1.60
2008,10,05,16,58,3.20
2008,10,05,16,59,3.20
2008,10,05,17,00,3.20
2008,10,05,17,01,0.00
2008,10,05,17,02,1.60
2008,10,05,17,03,0.00
2008,10,05,17,04,4.80
2008,10,05,17,05,1.60
2008,10,05,17,06,1.60
2008,10,05,17,07,0.00
2008,10,05,17,08,1.60
2008,10,05,17,09,1.60
2008,10,05,17,10,3.20
2008,10,05,17,11,1.60
2008,10,05,17,12,0.00
2008,10,05,17,13,3.20
2008,10,05,17,14,1.60
2008,10,05,17,15,1.60
2008,10,05,17,16,0.00
2008,10,05,17,17,1.60
2008,10,05,17,18,1.60
2008,10,05,17,19,3.20
2008,10,05,17,20,1.60
2008,10,05,17,21,1.60
2008,10,05,17,22,3.20
2008,10,05,17,23,1.60
2008,10,05,17,24,0.00
2008,10,05,17,25,0.00
2008,10,05,17,26,0.00
2008,10,05,17,27,0.00
2008,10,05,17,28,0.00
2008,10,05,17,29,1.60
2008,10,05,17,30,0.00
2008,10,05,17,31,0.00
2008,10,05,17,32,0.00
2008,10,05,17,33,0.00
2008,10,05,17,34,0.00
2008,10,05,17,35,0.00
2008,10,05,17,36,0.00
2008,10,05,17,37,0.00
2008,10,05,17,38,0.00
2008,10,05,17,39,0.00
2008,10,05,17,40,0.00
2008,10,05,17,41,0.00
2008,10,05,17,42,0.00
2008,10,05,17,43,0.00
2008,10,05,17,44,0.00
2008,10,05,17,45,0.00
2008,10,05,17,46,0.00
2008,10,05,17,47,0.00
2008,10,05,17,48,0.00
2008,10,05,17,49,0.00
2008,10,05,17,50,0.00
2008,10,05,17,51,0.00
2008,10,05,17,52,1.60
2008,10,05,17,53,1.60
2008,10,05,17,54,0.00
2008,10,05,17,55,0.00
2008,10,05,17,56,0.00
2008,10,05,17,57,0.00
2008,10,05,17,58,0.00
2008,10,05,17,59,0.00
2008,10,05,18,00,0.00
2008,10,05,18,01,0.00
2008,10,05,18,02,0.00